Vertical_Velocity
-4 -4 -4 -4 -3 -3 -6 -6 -2 1 -3 -7 -7 -5 -3 -3 -5 -6 -4 -1 -1 -2 -3 -5 -4 -2 -1 -3 -3 -2 -2 -2 -3 -4 -5 -4 -4 -4 -4 -4 -3 -3 -3 -2 -2 -2 -1 -1 -1 -1 -1 -1 -1 -1 -1 -1 -1 -1 -1 -1 -1 -2 -2 -2 -2 -2 -2 -2 -2 -2 -3 -3 -4 -3 -3 -3 -3 -3 -3 -2 -1 -1 0 1 2 3
-4 -6 -5 -4 -2 -2 -4 -7 -5 -1 2 -1 -5 -7 -5 -2 -3 -5 -4 -2 -1 -1 -0 -3 -5 -4 -1 -1 -1 -2 -3 -2 -3 -4 -5 -5 -4 -4 -4 -4 -3 -3 -3 -2 -2 -2 -1 -1 -1 -1 -1 -1 -1 -2 -2 -2 -1 -1 -1 -1 -2 -2 -2 -2 -3 -3 -2 -2 -2 -2 -2 -3 -3 -3 -3 -4 -4 -3 -3 -3 -2 -1 -1 0 1 2
-2 -5 -7 -6 -3 -0 -1 -3 -5 -6 -4 -1 -2 -4 -4 -2 -2 -3 -3 -2 -2 -2 1 0 -3 -5 -4 -1 -0 -1 -3 -3 -4 -4 -5 -5 -4 -4 -3 -3 -3 -3 -2 -1 -1 -1 -2 -2 -2 -2 -2 -1 -1 -1 -1 -1 -1 -0 -1 -1 -1 -1 -2 -2 -3 -3 -3 -3 -3 -2 -2 -3 -3 -3 -3 -3 -3 -3 -3 -3 -3 -2 -1 -1 -0 0
-1 -3 -7 -6 -4 -2 -1 0 -0 -2 -5 -4 -3 -3 -4 -2 -1 -0 -1 -1 -2 -2 -1 1 -0 -3 -5 -2 -1 -1 -3 -3 -4 -4 -5 -4 -3 -3 -2 -2 -2 -2 -1 -1 -1 -1 -2 -2 -2 -2 -2 -2 -1 -1 -0 0 1 1 1 0 -0 -0 -1 -1 -2 -2 -3 -3 -3 -3 -3 -2 -2 -3 -3 -3 -3 -3 -3 -3 -3 -3 -2 -1 -1 -1
-3 -2 -5 -5 -4 -2 -3 -2 -2 -2 -2 -3 -3 -3 -3 -4 -2 0 1 1 0 -1 -1 0 -0 -2 -3 -2 -1 -1 -2 -3 -4 -4 -4 -3 -2 -2 -2 -2 -2 -1 -1 -1 -1 -2 -2 -2 -3 -2 -2 -1 -1 -0 1 1 1 1 1 1 1 1 0 -0 -1 -2 -2 -3 -3 -3 -3 -3 -3 -3 -3 -3 -3 -3 -3 -3 -3 -4 -3 -2 -2 -2
-5 -2 -1 -1 -2 -3 -2 -0 -2 -4 -5 -5 -3 -1 -0 -3 -3 -2 -1 1 2 2 0 -0 -0 -1 -2 -2 -2 -2 -2 -3 -3 -3 -2 -1 -1 -1 -1 -1 -1 -1 -1 -1 -1 -2 -3 -3 -3 -3 -2 -1 -0 1 1 2 2 2 2 2 2 1 1 1 -0 -1 -2 -3 -3 -3 -4 -4 -3 -3 -3 -3 -3 -3 -3 -3 -3 -3 -3 -3 -2 -2
-7 -6 -4 1 -1 -3 -5 -0 1 -1 -7 -10 -5 1 3 1 -0 -2 -4 -1 1 2 0 -0 0 0 -2 -2 -2 -2 -3 -3 -2 -2 -1 -1 -0 -0 -1 -1 -1 -1 -1 -2 -2 -3 -3 -4 -3 -3 -2 -1 0 1 1 2 2 2 2 3 3 3 3 2 1 0 -1 -2 -2 -3 -3 -4 -4 -4 -3 -3 -3 -3 -3 -3 -3 -3 -3 -3 -3 -3
-4 -6 -9 -5 -2 -1 -6 -7 -2 2 -1 -11 -9 -2 1 1 3 4 -0 -2 -1 1 -1 -1 1 2 0 -2 -3 -3 -3 -3 -2 -1 -0 0 0 -0 -1 -1 -2 -2 -2 -2 -3 -3 -4 -4 -4 -3 -2 -1 0 0 1 1 1 2 2 3 4 4 4 4 3 2 1 -0 -1 -2 -3 -3 -4 -4 -4 -3 -3 -3 -2 -2 -2 -2 -3 -3 -3 -3
-1 -0 -3 -7 -4 1 2 -8 -7 -1 6 -4 -6 -4 -2 -5 -1 5 8 3 1 -0 -2 -2 -0 1 2 -1 -3 -4 -3 -2 -2 -1 -0 0 1 1 -0 -1 -1 -1 -2 -2 -3 -4 -4 -4 -4 -3 -2 -1 -0 0 0 1 1 2 2 3 3 4 4 5 4 4 3 1 0 -1 -2 -2 -3 -4 -4 -4 -3 -3 -3 -2 -2 -2 -2 -2 -2 -2
-6 -3 0 -3 -4 -1 5 -1 -6 -6 3 1 -0 -0 1 -6 -7 -3 6 7 5 1 -1 -2 -2 -1 1 1 -2 -4 -4 -2 -1 -1 -1 -0 0 0 -0 -0 -0 -1 -1 -2 -3 -4 -5 -5 -4 -3 -2 -1 -1 -1 -0 1 1 2 2 2 2 3 3 4 4 3 3 1 1 -0 -1 -2 -2 -3 -3 -4 -4 -3 -3 -3 -2 -2 -2 -2 -2 -2
-5 -5 -4 -3 -3 -3 -0 1 -1 -1 -0 -2 -2 -0 6 1 -5 -8 -4 4 6 4 1 0 -1 -2 -2 -1 -1 -2 -2 -2 -1 -0 -0 -1 -1 -1 -1 -0 -0 -0 -1 -2 -3 -4 -5 -5 -4 -3 -2 -2 -2 -2 -1 -0 1 1 2 2 2 2 3 3 3 2 1 1 0 -1 -1 -1 -2 -2 -3 -3 -3 -3 -3 -3 -3 -2 -2 -2 -2 -2
-2 -1 -2 -4 -4 -3 -4 -3 -1 1 3 -1 -5 -5 2 5 1 -4 -6 -1 2 3 2 3 2 -1 -4 -4 -3 -1 -0 1 1 1 1 -1 -2 -3 -2 -0 -0 -1 -2 -2 -3 -4 -5 -4 -3 -2 -2 -3 -3 -3 -2 -1 -0 1 1 1 1 2 3 2 2 1 1 -0 -1 -1 -1 -2 -2 -2 -2 -3 -3 -3 -3 -3 -3 -3 -2 -2 -2 -2
-5 -3 -1 -1 -2 -3 -4 -5 -4 -2 2 0 -3 -6 -3 1 1 -1 -3 -1 0 1 0 3 4 2 -3 -5 -5 -3 0 2 3 3 2 -1 -3 -4 -3 -0 0 -0 -3 -3 -3 -3 -4 -4 -3 -2 -2 -3 -4 -3 -3 -2 -1 -0 0 0 1 1 2 1 1 0 -0 -1 -2 -2 -2 -2 -2 -2 -2 -2 -2 -2 -3 -3 -3 -2 -2 -2 -2 -1
-6 -6 -6 -3 -1 -2 -4 -4 -4 -4 -1 -1 -3 -4 -3 -1 -1 -1 -2 0 1 0 -0 2 3 3 -0 -5 -6 -5 -1 3 6 6 3 -1 -4 -6 -5 -1 0 -0 -3 -4 -4 -3 -3 -3 -3 -2 -2 -3 -3 -3 -2 -1 -1 -0 -0 -0 0 0 -0 -0 -1 -1 -2 -2 -3 -3 -3 -3 -3 -2 -2 -1 -2 -2 -2 -2 -2 -2 -2 -1 -1 -1
-3 -4 -7 -5 -3 -1 -2 -3 -4 -4 -1 -1 -2 -3 -2 -1 -1 -2 -3 -1 1 1 1 2 3 4 1 -5 -8 -8 -4 3 7 8 6 1 -4 -7 -7 -3 -0 1 -2 -4 -4 -3 -2 -2 -2 -2 -1 -1 -1 -1 -1 -0 0 0 -0 -1 -1 -1 -2 -2 -2 -2 -2 -3 -3 -3 -3 -3 -2 -2 -1 -1 -1 -1 -1 -1 -1 -1 -1 -1 -0 -0
-1 -3 -6 -5 -4 -2 0 -1 -3 -4 -3 -1 -1 -1 -2 -1 -0 -1 -2 -1 0 1 2 3 4 5 5 -2 -8 -11 -8 0 6 9 8 4 -1 -5 -8 -4 -1 1 -0 -3 -4 -4 -2 -1 -1 -2 -1 -0 0 0 0 0 -0 -0 -1 -1 -1 -2 -2 -2 -2 -2 -2 -2 -2 -1 -1 -2 -2 -1 -1 -0 -0 -0 -0 -0 -1 -1 -1 -0 -0 0
-1 -3 -7 -5 -4 -2 -0 1 -0 -2 -4 -3 -1 -0 -1 -1 -1 -1 -1 -1 0 1 2 2 3 5 7 3 -4 -10 -11 -4 2 7 8 6 1 -4 -8 -5 -2 -0 -0 -2 -4 -4 -3 -2 -1 -1 -0 1 1 1 1 0 -0 -1 -1 -1 -1 -1 -1 -1 -1 -1 -1 -0 -0 -0 -0 -1 -1 -1 -1 -0 -0 0 -0 -0 -1 -1 -1 -1 -1 -0
-1 -0 -5 -6 -4 -1 1 -0 -1 -1 -2 -2 -1 1 2 0 -1 -2 -1 -1 -1 1 1 2 2 3 4 5 1 -5 -10 -5 -1 4 6 5 2 -2 -7 -5 -3 -1 -1 -3 -4 -4 -2 -1 -1 -0 0 1 1 1 0 -0 -0 -0 -1 -1 -1 -1 -1 -0 -0 0 1 1 1 1 1 0 -0 -0 -0 -0 -0 -0 -0 -0 -1 -1 -1 -1 -1 -1
-1 1 -2 -6 -4 -0 3 1 -1 -3 -2 -1 -0 1 3 2 1 -1 -2 -2 -1 -0 1 2 2 2 2 3 1 -2 -5 -4 -1 2 4 5 3 -1 -6 -5 -3 -1 -1 -3 -4 -4 -2 -1 0 1 1 -0 -1 -1 -0 0 -0 -0 -0 -0 -0 -0 -0 0 1 1 1 2 2 1 1 1 1 1 0 0 0 0 0 -0 -0 -1 -1 -1 -1 -1
-1 1 1 -4 -5 -2 3 3 0 -2 -3 -2 -1 1 2 3 2 1 -1 -1 -1 -1 0 1 1 1 1 2 1 -0 -3 -2 -1 1 4 5 4 -0 -6 -4 -2 -1 -1 -3 -3 -3 -1 1 1 1 1 -0 -0 -0 -0 -0 -0 -0 -0 -0 0 0 0 1 1 2 1 1 0 0 -0 0 0 1 1 1 1 1 0 0 -0 -1 -1 -1 -1 -1
-2 0 3 -2 -4 -4 0 2 1 -1 -2 -2 -1 0 1 2 2 2 1 -1 -1 -1 -0 0 1 1 0 1 1 0 -2 -2 -1 1 4 7 5 1 -5 -5 -3 -1 -0 -2 -2 -1 0 1 1 0 -0 -0 -0 -0 -0 -1 -1 -0 -0 0 1 1 1 1 2 1 1 -0 -1 -2 -2 -1 -1 -0 0 0 1 0 0 -0 -1 -1 -1 -1 -1 -1
-4 -2 1 0 -1 -3 -1 1 1 0 -1 -2 -1 -1 0 1 2 2 1 1 0 -0 0 0 0 -0 -0 -0 -0 -1 -2 -3 -3 -0 4 7 7 4 -4 -5 -3 -1 0 -1 -1 0 1 -0 -1 -1 -1 -1 -1 -1 -1 -1 -1 -1 -0 1 1 2 2 2 2 1 0 -1 -2 -2 -3 -2 -2 -1 -1 -1 -0 -0 -0 -1 -1 -1 -1 -1 -1 -1
-3 -2 -0 -0 -1 -1 -1 0 1 1 -0 -1 -1 -1 -0 1 1 1 2 1 1 0 0 1 1 0 -0 -1 -1 -2 -3 -4 -4 -1 3 6 6 4 -4 -4 -2 -0 -0 -1 -1 0 1 -1 -1 -2 -1 -2 -2 -2 -2 -2 -1 -1 0 1 2 3 3 2 2 1 0 -0 -1 -1 -2 -1 -1 -1 -1 -1 -1 -1 -0 -0 -0 -0 -0 -0 -0 -0
-2 -1 -0 -0 -1 -1 -1 -0 0 0 -0 -0 -0 0 0 1 1 1 1 1 0 1 1 1 1 1 1 0 -1 -2 -4 -5 -4 -2 2 4 4 2 -4 -4 -2 0 -0 -1 -1 -0 0 -1 -2 -2 -1 -2 -2 -2 -2 -2 -1 -1 0 1 3 3 4 3 2 2 1 1 1 0 0 1 1 1 1 1 1 1 2 2 2 2 2 1 1 1
-2 -2 -1 -0 -0 -0 -0 -0 -0 -1 -1 -0 0 1 2 2 1 1 0 -0 -0 0 1 1 1 1 1 1 1 -1 -4 -5 -4 -2 1 3 3 1 -4 -5 -2 -0 0 -2 -2 -1 -0 -1 -2 -2 -2 -2 -2 -2 -2 -2 -1 -1 1 2 3 4 5 4 4 3 3 3 3 3 3 3 4 4 4 4 3 3 3 3 2 2 2 1 1 1
-3 -2 -2 -1 -1 -1 -1 -1 -1 -1 -2 -1 -1 0 1 2 2 2 1 -0 -0 -0 1 1 1 2 2 1 1 -1 -3 -5 -4 -2 1 1 1 -0 -4 -4 -2 -0 0 -2 -3 -2 -0 -1 -1 -2 -2 -2 -2 -2 -2 -2 -1 -1 -0 1 2 3 4 4 4 4 4 4 4 4 4 4 4 4 4 4 4 3 3 3 2 1 1 0 0 1
-4 -3 -3 -2 -2 -2 -1 -1 -1 -2 -2 -2 -2 -1 0 1 2 2 1 0 -1 -1 -0 -0 0 1 2 2 1 -0 -3 -5 -4 -1 2 2 1 -1 -4 -3 -1 0 0 -2 -3 -3 -1 -0 -0 -1 -1 -1 -2 -2 -2 -2 -2 -1 -1 -1 -0 0 1 1 1 1 1 1 2 2 2 1 2 2 2 2 2 2 2 2 2 1 1 0 1 1
-4 -4 -3 -3 -3 -2 -2 -1 -1 -2 -2 -2 -3 -2 -1 -0 0 0 -0 -1 -1 -1 -1 -1 -1 0 2 3 2 1 -3 -5 -4 -1 3 3 1 -1 -4 -3 -1 1 1 -1 -3 -4 -2 0 1 1 -0 -1 -1 -1 -2 -2 -2 -2 -3 -3 -2 -2 -2 -2 -2 -2 -1 -1 -1 -1 -1 -1 -0 -0 -0 0 1 1 1 1 1 1 1 1 1 1
-4 -3 -3 -3 -3 -2 -2 -1 -1 -2 -2 -2 -3 -3 -2 -1 -1 -1 -2 -1 -1 -1 -2 -1 -1 -1 1 3 4 3 -1 -5 -5 -1 3 3 1 -1 -4 -2 -1 0 1 0 -2 -5 -5 -2 0 1 1 -0 -1 -1 -1 -2 -2 -3 -4 -4 -3 -3 -2 -2 -2 -2 -2 -2 -2 -2 -2 -1 -1 -1 -0 0 1 1 1 1 1 1 1 1 2 2
-3 -3 -3 -3 -3 -2 -1 -1 -1 -1 -2 -2 -3 -3 -3 -2 -2 -2 -3 -2 -2 -2 -2 -2 -1 -1 -0 2 3 4 2 -3 -4 -2 3 3 1 -2 -3 -3 -2 -1 1 1 -0 -3 -6 -5 -3 -1 0 -0 -1 -1 -1 -2 -2 -3 -3 -3 -2 -2 -2 -2 -1 -1 -1 -1 -1 -1 -1 -1 -0 0 0 1 1 1 1 1 0 0 1 2 3 3
-2 -2 -2 -2 -2 -2 -1 -1 -1 -1 -2 -2 -3 -3 -3 -3 -3 -3 -3 -3 -2 -2 -2 -1 -1 -1 -1 0 1 3 3 -0 -1 -1 2 2 0 -2 -3 -2 -2 -1 -0 1 2 1 -2 -5 -5 -4 -2 -1 -1 -1 -1 -2 -2 -2 -2 -2 -1 -1 -1 -1 -1 -1 -1 -1 -1 -1 -1 -1 -0 1 1 1 1 1 1 1 0 0 0 2 3 4
-1 -1 -1 -1 -1 -1 -1 -1 -1 -1 -1 -2 -2 -2 -2 -3 -3 -3 -3 -3 -3 -2 -2 -1 -1 -0 -0 0 0 0 1 -0 -0 1 3 2 1 -1 -2 -2 -1 -1 -1 0 1 2 2 -0 -3 -4 -4 -3 -2 -2 -2 -2 -2 -2 -2 -2 -1 -0 -1 -1 -1 -2 -2 -3 -3 -3 -3 -3 -2 -1 -0 0 1 1 2 1 1 0 0 1 2 3
-1 -1 -1 -1 -1 -1 -1 -1 -1 -1 -1 -1 -2 -2 -2 -2 -2 -3 -3 -3 -3 -2 -2 -2 -1 -0 1 1 1 0 -1 -1 -1 1 3 2 1 -0 -1 -1 -1 -0 -1 -1 0 1 2 2 0 -1 -2 -3 -3 -3 -2 -2 -2 -3 -3 -2 -1 -1 -1 -1 -2 -2 -3 -3 -4 -3 -3 -3 -2 -2 -1 -1 -1 -0 1 1 1 0 -0 -0 -0 0
-1 -1 -1 -1 -1 -1 -1 -1 -1 -1 -1 -1 -1 -1 -1 -2 -2 -3 -3 -3 -3 -3 -2 -2 -2 -1 -0 2 2 2 0 -1 -1 -0 2 2 1 0 -1 -1 -0 -0 0 -1 -1 -0 0 1 1 1 0 -1 -2 -3 -3 -3 -3 -3 -4 -3 -3 -2 -2 -2 -2 -2 -2 -3 -3 -2 -1 -1 -0 0 -0 -1 -1 -1 -0 0 0 0 0 -0 -0 -1
-1 -1 -1 -1 -1 -1 -1 -1 -1 -1 -1 -1 -1 -1 -1 -2 -2 -3 -3 -3 -3 -3 -3 -3 -2 -2 -1 1 2 2 2 -0 -1 -1 0 1 1 0 0 -0 -0 0 0 -0 -1 -1 -1 -1 -0 0 1 1 0 -1 -3 -3 -3 -3 -4 -4 -4 -4 -4 -3 -3 -3 -2 -2 -2 -1 -1 0 1 1 1 0 -0 -1 -1 -1 -1 -1 -0 -0 -0 -0
-1 -1 -1 -1 -0 -0 -1 -1 -1 -1 -1 -1 -1 -1 -1 -2 -2 -2 -3 -3 -3 -3 -3 -3 -3 -3 -2 -1 1 2 2 1 1 0 -0 -0 -0 -0 -0 -0 -0 -0 0 0 -0 -1 -1 -1 -1 -1 -0 1 2 1 0 -1 -2 -3 -4 -4 -4 -3 -3 -4 -3 -3 -2 -1 -1 -0 -0 0 1 2 2 1 1 0 -0 -1 -2 -2 -3 -2 -2 -2
-1 -1 -1 -0 0 0 0 -0 -1 -1 -1 -1 -1 -2 -1 -2 -2 -2 -2 -2 -2 -2 -3 -3 -3 -4 -3 -2 -1 1 1 2 2 1 1 0 -0 -0 -0 0 0 -0 -0 -0 -0 -1 -1 -1 -2 -2 -1 -0 1 2 3 2 1 -0 -1 -1 -1 -1 -2 -3 -3 -2 -1 -1 -0 -0 -0 0 1 2 2 2 2 1 1 1 -0 -1 -2 -3 -3 -3
-1 -1 -1 -0 0 1 1 0 -0 -0 -1 -1 -1 -1 -1 -2 -2 -2 -2 -2 -2 -2 -2 -2 -3 -3 -4 -3 -2 -1 -0 1 1 1 1 0 -0 -0 -0 0 0 -0 -1 -1 -1 -1 -1 -1 -1 -1 -1 -0 -0 0 1 1 2 2 3 3 3 2 -0 -2 -3 -2 -1 -1 -1 -0 0 1 1 1 1 1 1 2 2 2 2 2 1 -0 -1 -2
-1 -1 -1 -0 0 1 1 1 0 -0 -0 -0 -1 -1 -1 -1 -1 -2 -2 -2 -2 -2 -2 -2 -2 -3 -3 -3 -3 -2 -1 -0 0 1 1 1 0 -0 -0 0 0 -0 -1 -1 -1 -1 -1 -1 -0 0 1 2 3 2 1 0 1 1 3 5 6 6 2 -1 -3 -2 -1 -1 -1 -1 1 2 2 1 -0 -1 -1 0 1 2 3 2 1 0 -1 -1
-1 -1 -0 -0 0 1 1 1 1 0 0 -0 -1 -1 -1 -1 -1 -1 -2 -2 -2 -2 -2 -2 -2 -2 -3 -3 -3 -2 -1 -1 -0 0 1 1 0 -0 -0 0 0 -0 -1 -1 -1 -1 -1 -1 -0 0 1 3 5 6 5 2 1 -0 1 4 6 7 4 0 -2 -2 -1 -1 -1 -1 1 2 2 1 -1 -1 -1 -1 -0 1 1 0 -0 -1 -1 -1
-1 -0 -0 0 0 0 0 1 1 0 0 -0 -1 -1 -1 -0 -1 -1 -1 -2 -2 -2 -2 -1 -2 -2 -3 -3 -3 -3 -2 -1 -0 0 0 0 0 0 -0 0 -0 -0 -1 -1 -1 -1 -1 -1 -1 -0 0 2 4 6 6 4 1 -1 -1 1 3 5 5 2 -1 -2 -2 -1 -1 -1 1 2 1 1 -0 -0 -0 0 -0 0 -0 -0 -0 -0 0 1
-1 -1 -0 -0 -0 -0 -0 -0 -0 -0 -0 -0 -1 -1 -0 -0 0 -0 -1 -1 -1 -2 -2 -1 -1 -1 -2 -3 -4 -4 -3 -2 -1 -0 0 1 0 0 0 0 -0 -0 -1 -1 -1 -1 -1 -1 -1 -1 -0 1 3 4 5 3 1 -2 -3 -1 0 2 4 3 1 -1 -2 -2 -1 -1 1 1 1 1 1 2 2 1 1 0 -0 -0 0 0 0 0
-1 -1 -1 -1 -1 -1 -1 -1 -1 -1 -1 -1 -1 -1 -1 -0 -0 -0 -0 -0 -1 -1 -1 -1 -0 -0 -0 -1 -2 -3 -3 -3 -2 -1 -0 1 1 1 0 0 -0 -1 -1 -1 -1 -1 -1 -1 -2 -2 -2 -1 1 2 3 2 1 -1 -1 -1 -1 -1 -1 0 1 1 1 1 0 0 1 1 1 2 2 3 3 2 1 1 0 -0 -0 0 0 -0
-0 -1 -1 -1 -1 -1 -1 -1 -1 -1 -1 -1 -1 -1 -1 -1 -1 -0 -0 -0 -0 -0 -0 -0 0 0 1 0 -0 -1 -2 -3 -3 -2 -1 -0 0 1 1 1 -0 -1 -1 -1 -1 -1 -0 -1 -2 -2 -3 -3 -2 -1 -1 -1 -0 1 2 1 -1 -3 -4 -4 -3 -1 2 3 3 2 1 1 1 1 2 2 2 2 1 1 1 1 0 -0 -0 -0
0 0 -0 -0 -0 -1 -1 -1 -1 -0 -0 -0 -1 -1 -1 -1 -1 -1 -1 -0 -0 -0 -0 -0 0 1 1 1 1 1 -0 -2 -3 -3 -2 -1 -0 0 1 1 0 -1 -1 -1 -1 -1 -1 -1 -1 -1 -2 -3 -3 -3 -3 -3 -1 1 3 2 0 -1 -3 -5 -4 -3 0 3 4 3 1 0 0 1 2 2 2 2 2 2 2 1 1 0 -0 -1
0 0 0 -0 -0 -0 -0 -0 -0 -0 -0 -1 -1 -1 -1 -1 -1 -1 -1 -1 -1 -1 -1 -1 -0 0 1 1 2 2 2 0 -1 -2 -3 -2 -1 -1 0 0 -0 -1 -1 -1 -1 -1 -2 -2 -1 -1 -1 -1 -1 -2 -2 -2 -1 1 2 1 0 -1 -3 -3 -3 -1 1 3 3 2 0 -0 1 2 3 2 2 2 2 2 2 1 1 1 -0 -1
0 0 0 0 -0 -0 -1 -0 -0 -0 -0 -1 -1 -1 -1 -1 -1 -0 -0 -1 -1 -1 -1 -1 -1 -1 -0 0 1 2 2 2 1 -0 -2 -2 -2 -2 -1 -1 -1 -1 -1 -1 -1 -1 -1 -1 -1 -1 -1 1 2 2 2 1 1 0 -0 -1 -1 -1 -1 -1 0 1 3 3 1 -0 -2 -0 2 4 4 3 3 3 3 2 2 1 1 0 -1 -1
0 0 0 0 -0 -0 -1 -1 -0 -0 0 -0 -1 -1 -2 -1 -1 -1 -0 -1 -1 -1 -1 -1 -1 -1 -1 -0 0 1 1 2 2 1 0 -1 -1 -1 -1 -1 -1 -1 -1 -1 -1 -1 -1 -1 -1 -1 -1 1 3 4 5 4 1 -1 -2 -3 -3 -2 -0 1 2 4 4 3 1 -2 -3 -0 3 5 5 4 3 4 4 4 3 2 0 -1 -2 -2
0 0 0 0 -0 -0 -0 -0 -0 0 0 0 -0 -1 -1 -2 -2 -1 -1 -1 -1 -1 -1 -1 -1 -1 -0 -0 0 0 1 1 1 1 1 0 0 -0 -1 -1 -1 -1 -1 -1 -2 -1 -1 -1 -0 -0 0 1 2 4 4 4 2 -0 -2 -3 -3 -2 0 2 3 4 4 2 1 -1 -1 1 3 4 5 4 4 5 6 6 4 2 -1 -2 -2 -2
-0 -0 -0 -0 -0 0 -0 0 0 0 1 1 0 -0 -1 -1 -2 -2 -2 -1 -1 -1 -2 -2 -1 -1 -0 -0 0 0 1 1 1 1 1 0 0 0 0 -1 -1 -1 -1 -2 -2 -1 -1 -0 -0 -0 -1 -0 1 2 3 3 2 1 -1 -2 -2 -1 1 3 4 4 3 1 1 1 1 3 4 4 3 4 5 6 8 7 4 1 -2 -3 -2 -1
-1 -1 -1 -1 -0 0 0 0 0 1 1 1 0 0 -0 -1 -1 -1 -2 -2 -2 -2 -2 -2 -2 -2 -1 -1 0 1 1 1 1 1 1 0 0 0 0 -0 -1 -1 -1 -1 -1 -1 -1 -0 -1 -2 -4 -4 -2 -1 -0 1 1 1 0 -0 -1 -1 1 3 4 3 2 1 1 1 3 4 4 4 3 4 6 8 9 6 3 -1 -3 -2 -0 1
Height
5525 5520 5516 5512 5509 5505 5500 5495 5492 5489 5485 5479 5473 5469 5466 5462 5457 5451 5447 5443 5439 5434 5429 5425 5420 5415 5412 5408 5405 5401 5398 5395 5391 5389 5387 5385 5383 5381 5380 5378 5377 5375 5374 5372 5370 5369 5367 5366 5364 5363 5361 5360 5358 5357 5355 5354 5352 5351 5349 5347 5346 5344 5342 5340 5338 5336 5334 5331 5330 5327 5325 5323 5320 5319 5316 5315 5313 5311 5310 5309 5308 5308 5308 5310 5311 5312
5518 5513 5508 5505 5501 5498 5493 5488 5483 5480 5476 5471 5466 5460 5455 5451 5447 5442 5436 5432 5427 5423 5419 5415 5410 5406 5402 5399 5396 5394 5391 5388 5385 5383 5381 5379 5377 5376 5374 5373 5371 5370 5369 5367 5365 5364 5362 5361 5359 5358 5356 5355 5353 5352 5350 5349 5348 5346 5345 5343 5341 5339 5338 5335 5333 5331 5330 5327 5325 5323 5320 5318 5316 5314 5311 5309 5307 5305 5304 5302 5301 5300 5300 5301 5301 5303
5511 5506 5501 5496 5493 5490 5486 5481 5475 5470 5465 5461 5457 5451 5446 5441 5437 5432 5427 5422 5418 5413 5408 5405 5401 5398 5395 5392 5389 5387 5385 5382 5380 5378 5376 5374 5373 5371 5370 5368 5367 5365 5364 5362 5360 5359 5357 5356 5355 5353 5352 5350 5349 5348 5346 5345 5344 5342 5341 5340 5338 5335 5334 5331 5329 5327 5325 5323 5321 5319 5316 5314 5312 5310 5307 5305 5303 5301 5300 5298 5296 5295 5294 5294 5295 5295
5503 5499 5494 5489 5485 5481 5477 5473 5468 5462 5456 5451 5447 5442 5437 5432 5426 5421 5417 5413 5409 5405 5400 5396 5393 5390 5388 5385 5383 5381 5379 5377 5375 5373 5371 5370 5368 5367 5365 5364 5362 5361 5359 5357 5356 5355 5353 5351 5350 5349 5347 5346 5345 5344 5343 5342 5340 5339 5337 5336 5334 5332 5330 5328 5326 5324 5321 5319 5317 5315 5312 5310 5308 5306 5304 5301 5299 5297 5296 5294 5292 5290 5289 5289 5289 5290
5495 5491 5487 5482 5477 5472 5468 5463 5458 5453 5447 5441 5436 5432 5428 5424 5418 5412 5407 5404 5400 5397 5393 5390 5386 5384 5382 5380 5378 5376 5375 5372 5370 5369 5367 5365 5364 5363 5361 5360 5358 5356 5355 5353 5352 5350 5349 5347 5346 5345 5343 5342 5341 5340 5339 5338 5337 5335 5334 5332 5330 5329 5326 5325 5322 5320 5318 5316 5313 5311 5309 5306 5304 5302 5300 5298 5295 5294 5292 5290 5288 5287 5286 5285 5285 5285
5486 5482 5478 5474 5470 5464 5459 5454 5449 5443 5438 5432 5425 5420 5418 5415 5410 5405 5400 5396 5392 5390 5387 5384 5381 5379 5377 5375 5374 5372 5370 5368 5366 5365 5363 5361 5360 5359 5357 5356 5354 5352 5350 5349 5348 5346 5345 5343 5342 5340 5339 5338 5337 5336 5335 5334 5333 5331 5330 5328 5327 5325 5323 5321 5319 5316 5314 5312 5310 5307 5305 5303 5300 5298 5296 5294 5292 5290 5288 5286 5285 5284 5283 5282 5281 5281
5478 5473 5469 5465 5461 5455 5449 5443 5438 5434 5430 5424 5417 5411 5407 5405 5401 5398 5394 5390 5386 5383 5381 5379 5376 5375 5373 5371 5370 5368 5366 5365 5362 5360 5359 5358 5356 5355 5354 5352 5350 5348 5346 5345 5344 5342 5341 5340 5338 5337 5335 5334 5333 5332 5331 5330 5329 5328 5326 5325 5323 5321 5320 5317 5315 5313 5310 5308 5306 5304 5301 5299 5297 5295 5293 5291 5289 5287 5285 5283 5282 5280 5279 5279 5278 5278
5470 5465 5459 5454 5450 5446 5441 5433 5426 5421 5419 5416 5411 5405 5400 5396 5393 5390 5387 5385 5381 5378 5376 5374 5372 5370 5369 5367 5366 5364 5362 5360 5358 5357 5355 5354 5353 5352 5350 5348 5346 5345 5343 5342 5340 5339 5337 5336 5334 5333 5332 5330 5329 5328 5327 5326 5325 5324 5322 5321 5320 5318 5316 5314 5312 5310 5307 5305 5302 5300 5298 5295 5293 5291 5290 5287 5286 5284 5282 5281 5279 5278 5277 5276 5276 5275
5460 5456 5451 5445 5440 5435 5432 5426 5418 5411 5407 5405 5402 5398 5395 5391 5387 5383 5381 5379 5377 5374 5372 5370 5369 5367 5365 5364 5362 5360 5358 5356 5354 5353 5351 5350 5350 5348 5347 5345 5343 5341 5340 5338 5337 5335 5334 5332 5331 5329 5328 5326 5325 5324 5323 5322 5320 5320 5318 5317 5316 5314 5312 5310 5308 5306 5304 5301 5299 5296 5294 5292 5290 5288 5286 5284 5282 5281 5279 5278 5277 5275 5275 5274 5273 5273
5449 5445 5441 5436 5430 5424 5421 5418 5413 5406 5400 5396 5393 5390 5387 5385 5382 5379 5376 5375 5372 5370 5368 5367 5365 5364 5362 5360 5359 5356 5354 5352 5350 5349 5348 5347 5346 5345 5343 5341 5340 5338 5337 5335 5334 5332 5330 5329 5327 5326 5324 5323 5321 5320 5318 5317 5316 5315 5314 5313 5311 5310 5308 5306 5304 5302 5300 5297 5295 5292 5290 5288 5286 5284 5282 5281 5279 5278 5276 5275 5274 5273 5272 5271 5271 5270
5440 5435 5430 5426 5420 5415 5410 5407 5403 5399 5395 5391 5386 5382 5379 5377 5376 5375 5372 5370 5369 5367 5365 5363 5362 5360 5359 5357 5355 5353 5350 5348 5347 5346 5345 5344 5343 5341 5340 5338 5337 5335 5334 5332 5330 5329 5327 5325 5324 5322 5320 5319 5317 5315 5314 5313 5311 5310 5309 5308 5306 5305 5303 5301 5299 5297 5295 5292 5290 5288 5286 5284 5282 5280 5279 5277 5276 5275 5273 5272 5270 5270 5269 5268 5268 5267
5430 5425 5420 5416 5412 5407 5402 5398 5394 5390 5387 5385 5381 5378 5374 5371 5370 5369 5368 5366 5365 5364 5362 5360 5359 5357 5355 5353 5351 5349 5347 5345 5344 5343 5342 5341 5340 5339 5337 5335 5334 5332 5330 5329 5327 5325 5323 5322 5320 5319 5317 5315 5314 5312 5310 5309 5307 5306 5305 5303 5302 5300 5298 5296 5294 5292 5290 5288 5285 5284 5281 5280 5278 5276 5275 5274 5273 5271 5270 5269 5268 5266 5266 5265 5265 5264
5421 5416 5411 5407 5403 5399 5395 5391 5387 5384 5380 5377 5375 5373 5370 5368 5366 5365 5364 5363 5361 5360 5359 5358 5356 5354 5352 5350 5347 5345 5343 5342 5341 5341 5340 5339 5338 5336 5334 5333 5331 5330 5328 5326 5324 5322 5320 5318 5317 5315 5314 5312 5310 5309 5307 5305 5304 5303 5301 5300 5298 5296 5294 5292 5290 5287 5285 5283 5281 5279 5277 5275 5274 5273 5271 5270 5270 5268 5267 5266 5265 5264 5263 5262 5261 5261
5412 5408 5403 5398 5394 5390 5387 5384 5381 5378 5375 5372 5370 5368 5366 5365 5363 5362 5360 5359 5358 5357 5356 5355 5353 5351 5349 5347 5344 5341 5340 5339 5338 5338 5338 5337 5335 5333 5331 5330 5329 5327 5325 5323 5321 5319 5317 5315 5313 5312 5311 5309 5307 5306 5304 5303 5301 5300 5298 5296 5294 5292 5290 5287 5285 5283 5280 5279 5277 5275 5273 5272 5270 5269 5268 5267 5266 5265 5265 5263 5262 5261 5260 5260 5259 5258
5403 5399 5396 5391 5387 5384 5380 5378 5375 5372 5370 5367 5366 5364 5363 5361 5360 5359 5357 5356 5355 5354 5353 5351 5350 5349 5347 5344 5341 5338 5336 5335 5335 5335 5336 5335 5333 5330 5328 5327 5325 5324 5322 5319 5317 5316 5314 5312 5310 5309 5308 5306 5305 5303 5301 5300 5298 5296 5294 5292 5290 5288 5285 5283 5281 5279 5277 5275 5273 5271 5270 5269 5267 5266 5265 5265 5264 5263 5262 5260 5260 5259 5258 5257 5256 5255
5395 5391 5388 5385 5382 5378 5375 5373 5370 5368 5365 5364 5362 5361 5360 5358 5357 5356 5355 5353 5352 5350 5349 5348 5347 5346 5345 5342 5339 5335 5332 5331 5332 5333 5333 5332 5330 5328 5325 5323 5322 5320 5319 5316 5314 5312 5311 5309 5308 5306 5305 5304 5302 5300 5299 5296 5295 5292 5290 5288 5286 5284 5282 5280 5278 5275 5274 5272 5270 5269 5267 5266 5265 5264 5263 5262 5261 5260 5259 5258 5257 5256 5255 5254 5253 5253
5390 5385 5382 5379 5376 5374 5371 5368 5365 5364 5362 5360 5359 5358 5357 5355 5354 5353 5351 5350 5349 5347 5346 5345 5345 5344 5343 5340 5338 5334 5330 5329 5329 5330 5330 5330 5328 5325 5322 5320 5318 5317 5315 5313 5311 5310 5308 5307 5305 5304 5303 5301 5299 5297 5295 5293 5291 5289 5287 5285 5283 5281 5279 5277 5275 5273 5271 5270 5268 5267 5265 5264 5263 5262 5260 5260 5259 5257 5256 5255 5255 5254 5253 5252 5251 5250
5384 5380 5377 5374 5371 5369 5367 5365 5362 5360 5359 5358 5356 5355 5354 5353 5351 5350 5349 5347 5345 5345 5343 5342 5341 5340 5339 5338 5336 5333 5329 5327 5326 5327 5327 5326 5325 5322 5319 5316 5315 5313 5312 5310 5309 5307 5305 5304 5303 5302 5300 5298 5296 5294 5292 5290 5288 5286 5284 5282 5280 5278 5276 5274 5272 5270 5269 5268 5266 5265 5264 5262 5261 5260 5258 5257 5256 5255 5254 5253 5252 5251 5251 5250 5249 5249
5379 5375 5372 5370 5367 5365 5363 5361 5359 5357 5356 5355 5354 5353 5351 5350 5349 5347 5345 5344 5343 5341 5340 5339 5338 5337 5336 5334 5332 5330 5327 5325 5324 5324 5325 5324 5322 5320 5316 5313 5312 5310 5310 5308 5306 5304 5303 5302 5301 5299 5297 5295 5293 5290 5289 5287 5285 5283 5281 5279 5277 5275 5273 5271 5270 5268 5267 5266 5265 5263 5262 5260 5259 5257 5256 5255 5254 5253 5252 5251 5250 5250 5249 5248 5248 5247
5374 5371 5368 5366 5364 5362 5360 5358 5357 5355 5354 5352 5351 5350 5349 5347 5346 5345 5343 5341 5340 5339 5338 5336 5335 5334 5332 5331 5329 5327 5325 5323 5322 5322 5322 5321 5320 5317 5314 5311 5309 5308 5307 5306 5304 5302 5301 5300 5298 5296 5294 5292 5290 5288 5285 5284 5281 5280 5278 5276 5274 5272 5270 5269 5267 5266 5265 5264 5263 5261 5260 5258 5256 5255 5254 5253 5252 5251 5250 5250 5249 5248 5248 5247 5246 5246
5370 5367 5364 5362 5360 5359 5357 5355 5354 5353 5351 5350 5349 5347 5346 5345 5344 5342 5341 5339 5338 5336 5335 5334 5332 5331 5330 5328 5326 5325 5322 5320 5319 5319 5319 5319 5318 5315 5311 5309 5307 5306 5305 5304 5302 5300 5299 5297 5295 5293 5291 5289 5286 5285 5282 5280 5278 5276 5275 5273 5271 5269 5268 5266 5265 5264 5263 5261 5260 5259 5257 5256 5255 5253 5252 5251 5251 5250 5249 5249 5248 5247 5246 5245 5245 5244
5366 5364 5361 5359 5357 5356 5355 5353 5352 5350 5348 5347 5346 5345 5343 5342 5341 5340 5338 5337 5335 5334 5333 5331 5330 5329 5327 5325 5324 5322 5319 5317 5316 5316 5316 5316 5315 5313 5310 5306 5305 5304 5303 5301 5300 5298 5296 5294 5292 5290 5288 5285 5283 5281 5279 5277 5275 5273 5271 5270 5268 5267 5265 5264 5263 5262 5260 5259 5258 5257 5255 5254 5253 5252 5251 5250 5249 5249 5248 5247 5246 5245 5244 5244 5243 5242
5363 5361 5359 5356 5355 5354 5352 5351 5349 5347 5346 5344 5343 5342 5341 5340 5338 5337 5335 5334 5333 5332 5330 5330 5328 5327 5325 5323 5321 5320 5317 5315 5314 5313 5313 5313 5312 5310 5307 5304 5303 5302 5300 5299 5297 5295 5293 5291 5289 5286 5284 5282 5280 5278 5276 5274 5272 5270 5269 5267 5266 5264 5263 5262 5261 5260 5258 5257 5256 5255 5253 5252 5251 5250 5249 5248 5248 5247 5246 5245 5244 5243 5242 5241 5241 5240
5360 5358 5356 5354 5352 5351 5350 5348 5346 5345 5343 5342 5341 5340 5338 5337 5335 5334 5333 5331 5330 5329 5328 5327 5326 5325 5324 5322 5320 5318 5315 5313 5311 5310 5310 5310 5309 5307 5304 5302 5300 5299 5298 5296 5294 5292 5290 5288 5286 5284 5281 5280 5278 5275 5274 5271 5269 5267 5266 5265 5263 5262 5261 5260 5259 5258 5256 5255 5254 5253 5252 5250 5250 5249 5248 5247 5246 5245 5244 5243 5242 5241 5240 5239 5239 5238
5357 5355 5353 5352 5350 5349 5347 5345 5344 5342 5341 5339 5338 5336 5335 5334 5333 5331 5330 5329 5327 5326 5325 5325 5324 5322 5321 5320 5318 5316 5313 5310 5309 5308 5307 5307 5306 5304 5302 5299 5298 5296 5295 5293 5291 5289 5287 5285 5283 5281 5279 5277 5275 5273 5271 5269 5267 5265 5263 5262 5261 5260 5259 5258 5257 5256 5255 5254 5253 5251 5250 5249 5248 5247 5246 5245 5244 5243 5242 5240 5240 5239 5237 5236 5236 5235
5354 5353 5351 5350 5348 5346 5345 5343 5341 5340 5338 5336 5334 5333 5332 5331 5330 5329 5328 5326 5325 5324 5322 5321 5321 5320 5319 5317 5315 5313 5311 5308 5306 5305 5305 5304 5303 5301 5299 5296 5295 5294 5292 5290 5288 5286 5285 5283 5281 5279 5277 5275 5273 5271 5269 5267 5265 5263 5261 5260 5259 5258 5257 5256 5255 5254 5253 5252 5251 5250 5249 5248 5246 5245 5244 5243 5242 5240 5239 5238 5237 5236 5235 5234 5233 5232
5352 5350 5349 5347 5345 5344 5342 5340 5338 5336 5335 5333 5331 5330 5329 5328 5327 5326 5325 5323 5322 5320 5319 5318 5317 5317 5316 5315 5313 5311 5309 5306 5304 5303 5302 5301 5300 5298 5296 5294 5293 5291 5290 5288 5286 5284 5282 5281 5279 5277 5275 5274 5271 5269 5267 5265 5263 5261 5260 5258 5257 5256 5255 5254 5253 5252 5251 5250 5249 5248 5247 5245 5244 5243 5242 5240 5239 5238 5237 5235 5235 5233 5232 5232 5231 5230
5350 5348 5346 5345 5343 5341 5339 5338 5336 5334 5332 5330 5329 5327 5326 5325 5324 5322 5321 5320 5319 5317 5316 5315 5314 5313 5312 5311 5310 5308 5306 5304 5302 5300 5300 5299 5298 5295 5294 5292 5290 5289 5288 5285 5283 5281 5280 5279 5277 5276 5274 5272 5270 5268 5266 5264 5262 5260 5258 5257 5256 5255 5253 5252 5251 5250 5249 5248 5246 5245 5244 5243 5242 5240 5239 5238 5237 5235 5234 5233 5232 5231 5230 5229 5229 5228
5348 5346 5344 5342 5340 5339 5337 5335 5334 5332 5330 5328 5326 5325 5323 5322 5320 5319 5318 5316 5315 5314 5313 5311 5310 5309 5308 5308 5307 5306 5304 5301 5299 5298 5297 5296 5295 5293 5291 5289 5288 5287 5285 5284 5281 5279 5277 5276 5275 5274 5273 5271 5269 5267 5265 5263 5261 5259 5258 5256 5255 5253 5252 5251 5250 5249 5247 5246 5245 5244 5242 5241 5240 5238 5237 5236 5234 5233 5232 5230 5229 5228 5227 5227 5226 5225
5345 5344 5342 5340 5339 5337 5335 5333 5331 5330 5328 5326 5324 5322 5320 5319 5317 5316 5315 5313 5312 5310 5309 5308 5307 5306 5305 5304 5304 5303 5301 5299 5297 5295 5295 5294 5292 5291 5289 5287 5286 5285 5283 5282 5280 5278 5275 5274 5273 5272 5271 5270 5268 5266 5264 5262 5260 5259 5257 5256 5254 5253 5251 5250 5249 5247 5246 5245 5243 5242 5240 5239 5238 5236 5235 5234 5232 5231 5229 5228 5227 5225 5225 5224 5223 5223
5344 5342 5340 5338 5336 5335 5333 5331 5329 5328 5326 5324 5322 5320 5318 5316 5315 5313 5311 5310 5309 5307 5306 5305 5304 5302 5301 5300 5300 5300 5298 5297 5295 5293 5292 5291 5290 5288 5287 5285 5284 5282 5281 5280 5279 5277 5275 5273 5271 5270 5269 5268 5266 5265 5263 5261 5260 5258 5256 5255 5254 5252 5250 5249 5248 5246 5245 5243 5242 5240 5239 5237 5235 5234 5233 5231 5230 5229 5227 5225 5224 5223 5221 5221 5220 5220
5342 5340 5338 5336 5335 5333 5331 5329 5327 5325 5324 5322 5320 5318 5316 5315 5313 5311 5309 5307 5306 5305 5303 5302 5300 5299 5298 5297 5296 5296 5295 5294 5292 5291 5290 5289 5287 5286 5285 5283 5282 5280 5279 5278 5277 5276 5275 5272 5270 5268 5267 5266 5265 5264 5262 5260 5258 5257 5255 5254 5253 5251 5250 5248 5246 5245 5243 5241 5240 5238 5236 5235 5233 5231 5230 5229 5227 5226 5224 5223 5221 5220 5219 5218 5217 5217
5340 5338 5336 5334 5332 5330 5329 5327 5325 5323 5322 5320 5318 5316 5315 5313 5311 5309 5307 5305 5304 5302 5300 5299 5297 5296 5295 5294 5294 5292 5291 5290 5289 5288 5287 5286 5285 5284 5282 5281 5280 5279 5277 5276 5275 5274 5273 5271 5269 5267 5266 5265 5264 5262 5261 5259 5257 5256 5255 5253 5252 5250 5249 5247 5245 5244 5242 5240 5238 5236 5234 5232 5230 5229 5227 5225 5224 5222 5221 5220 5218 5217 5216 5215 5214 5213
5337 5335 5333 5332 5330 5328 5326 5325 5323 5321 5320 5318 5316 5314 5313 5311 5309 5307 5305 5303 5301 5300 5298 5296 5295 5293 5292 5291 5291 5290 5289 5288 5286 5285 5284 5284 5283 5282 5280 5279 5278 5277 5275 5274 5273 5271 5270 5270 5268 5267 5265 5264 5262 5261 5260 5258 5256 5255 5253 5252 5250 5249 5247 5245 5244 5242 5240 5238 5236 5234 5232 5230 5229 5226 5225 5223 5221 5220 5218 5216 5215 5214 5213 5212 5211 5211
5335 5333 5331 5330 5328 5326 5325 5323 5321 5319 5317 5315 5314 5312 5310 5309 5307 5305 5303 5301 5299 5297 5295 5294 5292 5290 5289 5288 5287 5287 5286 5285 5284 5283 5281 5281 5280 5280 5278 5277 5276 5275 5274 5272 5271 5270 5269 5268 5267 5265 5264 5263 5261 5260 5258 5257 5255 5254 5252 5250 5249 5247 5245 5244 5242 5241 5239 5237 5235 5233 5231 5229 5227 5225 5223 5221 5219 5217 5216 5214 5213 5211 5210 5210 5210 5209
5332 5330 5329 5327 5325 5324 5322 5320 5319 5317 5315 5314 5312 5310 5308 5306 5305 5303 5301 5299 5297 5295 5293 5291 5289 5287 5286 5285 5284 5283 5283 5283 5281 5280 5279 5279 5278 5277 5276 5275 5274 5273 5272 5270 5270 5268 5267 5266 5265 5264 5263 5262 5260 5259 5257 5256 5254 5253 5251 5250 5248 5246 5244 5242 5241 5239 5238 5236 5234 5232 5230 5227 5225 5223 5221 5220 5218 5216 5214 5213 5211 5210 5209 5208 5207 5207
5330 5328 5326 5325 5323 5322 5320 5318 5317 5315 5313 5311 5310 5308 5306 5304 5302 5300 5299 5296 5295 5293 5291 5289 5287 5285 5283 5282 5281 5280 5280 5279 5279 5278 5277 5276 5275 5275 5274 5273 5272 5271 5270 5269 5268 5267 5266 5265 5264 5262 5261 5261 5260 5258 5257 5255 5254 5252 5250 5249 5247 5245 5243 5241 5239 5237 5236 5234 5232 5230 5228 5225 5224 5222 5220 5218 5216 5215 5213 5211 5210 5208 5207 5206 5205 5204
5327 5325 5324 5322 5321 5319 5318 5316 5315 5313 5311 5310 5308 5306 5304 5302 5300 5299 5297 5295 5293 5291 5289 5287 5285 5283 5281 5280 5278 5277 5277 5276 5276 5275 5275 5274 5273 5273 5272 5271 5270 5269 5268 5267 5266 5265 5265 5264 5262 5261 5260 5259 5258 5257 5256 5255 5253 5251 5250 5248 5246 5244 5242 5240 5238 5236 5234 5233 5230 5228 5226 5224 5222 5220 5218 5217 5215 5213 5212 5210 5208 5207 5205 5204 5203 5202
5325 5323 5321 5320 5319 5317 5316 5314 5313 5311 5310 5308 5306 5304 5302 5300 5299 5297 5295 5293 5291 5289 5287 5285 5283 5281 5280 5278 5276 5275 5274 5274 5273 5273 5272 5271 5271 5271 5270 5269 5268 5267 5267 5266 5265 5264 5263 5262 5261 5260 5259 5258 5257 5256 5255 5253 5252 5250 5249 5248 5246 5244 5241 5239 5237 5235 5233 5231 5229 5227 5225 5222 5220 5219 5217 5215 5214 5212 5210 5209 5207 5205 5204 5202 5201 5199
5322 5320 5319 5318 5316 5315 5314 5312 5311 5309 5307 5306 5304 5302 5301 5299 5297 5295 5293 5291 5289 5287 5285 5284 5281 5280 5278 5276 5274 5273 5272 5271 5271 5270 5270 5269 5269 5268 5268 5267 5266 5265 5265 5264 5264 5263 5262 5261 5260 5259 5258 5257 5256 5255 5254 5252 5250 5249 5248 5246 5245 5243 5240 5238 5236 5234 5231 5230 5227 5225 5223 5221 5219 5217 5215 5214 5212 5210 5208 5207 5205 5203 5202 5200 5199 5197
5320 5319 5317 5316 5314 5313 5311 5310 5309 5307 5305 5304 5302 5300 5299 5297 5295 5294 5292 5290 5288 5285 5284 5282 5280 5278 5276 5274 5272 5271 5270 5269 5269 5268 5268 5267 5267 5266 5266 5265 5265 5264 5263 5263 5262 5261 5260 5260 5258 5257 5256 5255 5255 5254 5253 5251 5250 5248 5246 5245 5243 5241 5239 5237 5235 5232 5230 5228 5225 5223 5221 5219 5218 5216 5214 5212 5210 5208 5206 5205 5203 5201 5200 5199 5197 5195
5318 5316 5315 5314 5312 5311 5310 5308 5306 5305 5303 5302 5300 5299 5297 5295 5294 5292 5290 5288 5286 5285 5282 5281 5279 5277 5275 5273 5271 5269 5268 5267 5266 5266 5266 5265 5265 5264 5264 5263 5263 5262 5262 5261 5260 5260 5259 5258 5257 5256 5255 5254 5253 5252 5251 5250 5248 5246 5245 5243 5241 5240 5238 5236 5233 5231 5228 5226 5224 5222 5220 5218 5216 5214 5212 5211 5209 5206 5204 5203 5201 5200 5198 5197 5195 5194
5316 5315 5313 5312 5310 5309 5308 5306 5305 5303 5301 5300 5298 5297 5295 5294 5292 5290 5289 5287 5285 5283 5281 5280 5278 5276 5274 5272 5270 5268 5266 5265 5265 5264 5264 5263 5263 5262 5262 5261 5261 5260 5260 5260 5259 5258 5257 5257 5256 5255 5254 5253 5252 5251 5250 5248 5247 5245 5243 5241 5239 5237 5236 5234 5232 5230 5227 5225 5222 5220 5218 5216 5215 5213 5211 5209 5207 5205 5203 5201 5199 5198 5197 5195 5194 5192
5315 5313 5312 5310 5309 5307 5306 5305 5303 5301 5300 5298 5297 5295 5293 5291 5290 5289 5287 5285 5284 5282 5280 5278 5276 5275 5273 5271 5269 5267 5265 5264 5263 5262 5262 5261 5261 5260 5260 5260 5259 5259 5259 5258 5258 5257 5256 5255 5254 5253 5252 5251 5250 5249 5248 5247 5245 5244 5242 5240 5238 5235 5233 5231 5230 5228 5226 5224 5221 5220 5217 5215 5214 5212 5210 5208 5205 5203 5201 5200 5198 5196 5195 5193 5192 5190
5313 5312 5310 5309 5307 5306 5305 5303 5301 5300 5298 5296 5295 5293 5291 5290 5288 5287 5285 5283 5282 5280 5278 5276 5275 5273 5271 5270 5268 5266 5265 5263 5262 5261 5260 5260 5259 5259 5258 5258 5258 5257 5257 5257 5256 5256 5255 5254 5253 5252 5251 5250 5249 5248 5246 5245 5244 5243 5241 5239 5236 5234 5232 5230 5227 5225 5224 5222 5220 5219 5217 5215 5213 5211 5209 5206 5204 5202 5200 5199 5197 5195 5194 5192 5190 5189
5311 5310 5309 5307 5306 5304 5303 5301 5300 5298 5296 5295 5293 5291 5290 5288 5286 5285 5283 5282 5280 5278 5276 5275 5273 5271 5270 5268 5267 5265 5264 5262 5261 5260 5259 5258 5257 5257 5257 5256 5256 5256 5255 5255 5255 5254 5254 5253 5252 5251 5250 5249 5248 5247 5245 5244 5243 5241 5240 5237 5235 5233 5230 5228 5226 5224 5222 5221 5219 5218 5216 5214 5212 5210 5207 5205 5203 5201 5199 5198 5196 5195 5193 5191 5189 5187
5310 5309 5307 5306 5304 5303 5301 5300 5298 5296 5295 5293 5291 5290 5288 5286 5285 5283 5282 5280 5278 5276 5274 5273 5271 5269 5268 5266 5265 5264 5263 5261 5260 5259 5258 5257 5256 5255 5255 5255 5255 5254 5254 5253 5253 5253 5252 5252 5251 5250 5249 5248 5247 5246 5245 5243 5242 5240 5238 5236 5234 5231 5229 5227 5225 5223 5221 5220 5218 5216 5215 5213 5211 5209 5206 5204 5202 5200 5198 5196 5195 5194 5192 5190 5188 5185
5309 5307 5306 5304 5303 5301 5300 5298 5296 5295 5293 5291 5290 5288 5286 5285 5283 5282 5280 5278 5276 5275 5273 5271 5269 5267 5266 5264 5263 5262 5261 5260 5259 5258 5257 5256 5255 5255 5254 5254 5253 5253 5252 5252 5252 5251 5251 5250 5250 5249 5248 5247 5246 5245 5244 5242 5240 5239 5236 5234 5232 5230 5228 5226 5224 5222 5220 5219 5217 5215 5214 5212 5210 5208 5205 5203 5200 5199 5197 5195 5194 5192 5190 5188 5186 5184
5307 5306 5305 5303 5301 5300 5298 5296 5295 5293 5292 5290 5288 5286 5285 5283 5281 5280 5278 5276 5275 5273 5271 5269 5267 5266 5264 5263 5261 5260 5259 5258 5258 5257 5256 5255 5254 5254 5253 5252 5252 5252 5251 5251 5250 5250 5250 5249 5249 5248 5247 5246 5245 5244 5243 5241 5240 5238 5235 5233 5231 5229 5227 5225 5223 5221 5220 5218 5216 5215 5213 5211 5209 5207 5205 5202 5200 5198 5195 5194 5192 5191 5189 5187 5184 5182
5306 5305 5303 5302 5300 5298 5297 5295 5294 5292 5290 5289 5287 5285 5283 5281 5280 5278 5276 5274 5272 5271 5269 5267 5265 5264 5263 5261 5260 5259 5258 5257 5256 5255 5255 5254 5253 5252 5252 5251 5251 5250 5250 5250 5250 5249 5249 5248 5248 5247 5245 5245 5244 5243 5241 5240 5239 5237 5235 5233 5230 5228 5226 5224 5222 5220 5219 5217 5216 5214 5212 5210 5208 5206 5204 5201 5199 5197 5195 5193 5191 5190 5188 5185 5183 5180
5305 5304 5302 5300 5299 5297 5295 5294 5292 5291 5289 5287 5285 5284 5282 5280 5278 5276 5275 5273 5271 5269 5267 5265 5264 5262 5261 5260 5259 5257 5256 5255 5255 5254 5253 5253 5252 5251 5251 5250 5250 5249 5249 5249 5249 5248 5248 5247 5247 5245 5244 5243 5242 5241 5240 5239 5237 5236 5234 5232 5230 5227 5225 5223 5221 5220 5218 5217 5215 5213 5211 5210 5207 5205 5202 5200 5198 5196 5194 5192 5190 5188 5186 5185 5182 5180